SCP
0 0 0 0 0 0 0 0 0 0 0 0 0 0 0 0 0 0 0 0 0 0 0 0 0 0 0 0 0 0 0 0 0 0 0 0 0 0 0 0 0 0 0 0 0 0 0 -0 0 -0 0 0 0 0
0 0 0 0 0 0 0 0 0 0 0 0 0 0 0 0 0 0 0 0 0 0 0 0 0 0 0 0 0 0 0 0 0 0 0 0 0 0 0 0 0 0 0 0 0 0 0 0 0 0 0 0 0 0
0 0 0 0 0 0 0 0 0 0 0 0 0 0 0 0 0 0 0 0 0 0 0 0 0 0 0 0 0 0 0 0 0 0 0 0 0 0 0 0 -0 0 0 0 0 0 -0 0 0 0 0 0 0 0
0 0 0 0 0 0 0 0 0 0 0 0 0 0 0 0 0 0 0 0 0 0 0 0 0 0 0 0 0 0 -0 0 0 0 0 0 0 0 0 0 -0 0 0 0 0 0 -0 0 0 0 0 0 0 0
0 0 0 0 0 0 0 0 0 0 0 0 0 0 0 0 0 0 0 0 0 0 0 0 0 0 0 -0 0 0 0 0 0 0 0 0 0 0 0 0 0 0 0 0 0 0 0 0 0 0 0 -0 0 -0
0 0 0 0 0 0 0 0 0 0 0 0 0 0 0 0 0 0 0 0 0 0 0 0 0 0 0 0 0 0 0 0 0 0 0 0 0 0 0 0 0 0 0 0 0 0 0 0 0 0 -0 0 0 -0
0 0 0 0 0 0 0 0 0 0 0 0 0 0 0 0 0 0 0 0 0 0 0 0 0 0 -0 0 0 0 0 0 0 0 0 0 -0 0 0 0 0 0 0 0 0 0 0 0 0 0 0 0 0 0
0 0 0 0 0 0 0 0 0 0 0 0 0 0 0 0 0 0 0 0 0 0 0 0 0 0 -0 -0 -0 0 0 0 0 0 0 0 0 0 0 -0 0 -0 -0 0 0 0 0 0 0 0 0 0 0 0
0 0 0 0 0 0 0 0 0 0 0 0 0 0 0 0 0 0 0 0 0 0 0 0 0 0 0 -0 -0 0 0 0 0 0 0 0 0 0 0 0 -0 0 0 0 0 0 0 0 0 0 0 0 0 -0
0 0 0 0 0 0 0 0 0 0 0 0 0 0 0 0 0 0 0 0 0 0 0 0 0 0 0 0 -0 0 0 0 0 0 0 0 -0 0 -0 0 -0 -0 0 0 0 0 0 0 0 -0 0 0 0 0
0 0 -0 0 0 0 0 0 0 -0 0 0 0 0 0 0 0 0 0 0 0 0 0 0 0 0 0 0 0 0 0 0 -0 0 0 0 0 0 0 -0 0 -0 -0 0 0 0 0 0 0 0 0 0 0 0
0 0 0 0 0 0 0 0 -0 0 0 0 0 0 0 0 0 0 0 0 0 0 0 0 0 0 0 0 0 0 0 0 -0 -0 0 -0 0 0 0 0 0 -0 -0 0 0 0 -0 0 0 0 0 0 0 0
0 0 0 0 0 0 0 -0 0 -0 0 0 0 0 0 0 0 0 0 0 0 -0 0 -0 -0 0 0 0 0 0 -0 -0 -0 -0 -0 0 0 0 0 -0 -0 -0 -0 -0 -0 -0 0 0 0 0 0 0 0 0
0 0 0 0 0 0 -0 -0 -0 0 0 0 0 0 0 0 0 0 0 0 0 0 -0 0 -0 -0 0 0 -0 -0 0 -0 -0 -0 -0 0 0 -0 0 0 -0 0 -0 -0 -0 -0 -0 0 0 0 0 0 0 0
0 0 0 0 0 0 -0 -0 0 0 0 0 0 0 0 0 0 0 -0 -0 0 0 -0 -0 -0 -0 0 0 0 0 -0 0 -0 0 -0 0 0 -0 0 0 0 -0 -0 -0 -0 -0 -0 0 0 0 0 0 0 0
0 0 0 0 0 -0 -0 0 0 0 0 0 0 0 0 0 0 -0 0 0 -0 -0 0 0 0 -0 0 0 0 0 -0 0 0 -0 0 0 0 -0 0 0 0 -0 -0 0 -0 -0 -0 -0 -0 0 0 0 0 0
0 0 0 0 -0 -0 -0 0 0 0 0 0 0 0 0 0 -0 -0 0 0 0 0 0 0 -0 0 0 0 0 0 0 -0 -0 -0 0 0 0 0 0 0 0 0 0 -0 -0 -0 -0 -0 0 -0 0 0 0 0
0 0 -0 -0 -0 0 0 0 0 0 0 0 0 0 0 0 0 0 0 -0 0 -0 0 0 0 0 0 0 0 0 0 -0 -0 -0 0 0 0 0 0 0 0 0 0 0 -0 -0 -0 -0 0 -0 0 0 0 0
0 -0 -0 -0 0 0 0 0 0 0 0 0 0 0 0 0 0 0 0 -0 0 0 0 0 0 0 0 0 0 0 -0 0 -0 0 0 0 0 0 0 0 0 0 -0 0 0 -0 -0 -0 -0 -0 -0 0 -0 0
-0 -0 -0 0 0 0 0 0 0 0 0 0 0 0 0 0 0 0 0 -0 0 0 0 0 0 0 0 0 0 0 0 0 0 0 0 -0 0 0 0 0 0 0 -0 0 0 0 0 -0 0 0 -0 -0 -0 -0
0 0 0 0 0 0 0 0 0 0 0 0 0 0 0 0 0 0 0 0 0 0 0 0 0 0 0 0 0 0 0 0 0 0 0 0 0 0 0 0 0 0 0 0 0 0 0 0 -0 0 0 -0 -0 -0
0 0 0 0 0 0 0 0 0 0 0 0 0 0 0 0 0 0 0 0 0 0 0 0 0 0 0 0 0 0 0 0 0 0 0 0 0 0 0 0 0 0 -0 0 0 0 0 0 0 0 0 0 -0 -0
0 0 0 0 0 0 0 0 0 0 0 0 0 0 0 0 0 0 0 0 0 -0 0 0 0 0 0 0 0 0 0 0 0 0 0 0 0 0 0 0 0 0 -0 0 0 0 0 0 0 0 0 0 0 -0
0 0 0 0 0 0 0 0 0 0 0 0 0 0 0 0 0 0 0 0 -0 -0 -0 -0 -0 -0 0 0 0 0 0 0 0 0 0 0 0 0 0 0 0 0 0 0 0 0 0 0 0 0 0 0 0 0
0 0 0 0 0 0 0 0 0 0 0 0 0 0 0 0 0 0 0 0 0 0 0 0 0 0 0 0 0 0 0 0 0 0 0 0 0 0 0 0 0 0 0 0 0 0 0 0 0 0 0 0 0 0
0 0 0 0 0 0 0 0 0 0 0 0 0 0 0 0 0 0 0 0 0 0 0 0 0 0 0 0 0 0 0 0 0 0 0 0 0 0 0 0 0 0 -0 -0 -0 -0 -0 0 0 0 0 0 0 0
0 0 0 0 0 0 0 0 0 0 0 0 0 0 0 0 0 0 0 0 0 0 0 0 -0 -0 0 0 0 0 0 0 0 0 0 0 0 0 0 0 0 -0 -0 -0 -0 -0 -0 -0 -0 -0 -0 -0 -0 -0
0 0 0 0 0 0 0 0 0 0 0 0 0 0 0 0 0 0 0 0 0 0 0 0 -0 0 0 0 0 0 0 0 0 0 0 0 0 0 0 0 0 0 0 -0 -0 -0 -0 -0 -0 -0 -0 -0 -0 -0
0 0 0 0 0 0 0 0 0 0 0 0 0 0 0 0 0 0 0 0 0 0 0 0 0 0 0 0 0 0 0 0 0 0 0 0 0 0 0 0 0 0 0 -0 -0 0 -0 -0 -0 0 -0 -0 -0 -0
0 0 0 0 0 0 0 0 0 0 0 0 0 0 0 0 0 0 0 0 0 0 0 0 0 0 0 0 0 0 0 0 0 0 0 0 0 0 0 0 0 0 0 0 0 0 0 0 0 0 0 0 0 0
0 0 0 0 0 0 0 0 0 0 0 0 0 0 0 0 0 0 0 0 0 0 0 0 0 0 0 0 0 0 0 0 0 0 0 0 0 0 0 0 0 0 0 0 0 0 0 0 0 0 0 0 0 0
0 0 0 0 0 0 0 0 0 0 0 0 0 0 0 0 0 0 0 0 0 0 0 0 0 0 0 0 0 0 0 0 0 0 0 0 0 0 0 0 0 0 0 0 0 0 0 0 0 0 0 0 0 0
0 0 0 0 0 0 0 0 0 0 0 0 0 0 0 0 0 0 0 0 0 0 0 0 0 0 0 0 0 0 0 0 0 0 0 0 0 0 0 0 0 0 0 0 0 0 0 0 0 0 0 0 0 0
Wind_Speed_500mb
51 51 49 46 46 43 39 33 31 31 29 27 30 36 37 33 21 22 34 30 20 14 48 56 41 14 17 14 6 30 20 12 7 4 4 6 5 8 9 13 7 13 10 7 5 9 5 25 7 10 13 32 40 47
54 54 54 51 48 46 43 37 35 34 29 26 28 29 33 32 22 21 36 32 22 33 31 32 45 69 68 37 41 15 19 26 10 5 7 7 6 6 9 5 13 7 3 5 4 8 12 35 7 28 36 39 47 62
52 55 57 56 53 49 44 37 39 38 31 26 28 26 27 27 23 27 25 28 23 20 47 19 9 20 15 26 22 12 1 11 8 11 7 5 7 6 3 6 9 10 16 4 11 11 27 50 36 51 51 50 59 72
54 58 57 54 52 49 47 42 40 37 31 33 35 27 24 23 23 29 26 27 34 14 10 17 10 15 16 25 23 33 35 16 13 15 6 4 4 8 5 9 8 6 12 11 9 12 57 9 49 48 55 64 61 62
44 47 46 44 43 43 43 39 39 31 34 34 35 26 23 20 20 25 32 32 39 18 9 25 63 25 40 33 29 24 20 13 5 7 4 5 9 8 9 6 3 4 3 2 8 26 20 42 61 66 62 67 64 76
45 45 45 45 42 41 37 38 37 30 29 34 31 23 20 20 19 20 10 25 39 38 9 7 17 24 21 32 42 33 29 18 7 5 10 11 32 2 4 6 9 16 14 15 16 38 50 59 62 50 64 57 72 83
47 43 41 45 42 34 34 38 33 27 36 35 26 22 20 23 24 22 9 7 2 22 6 10 9 11 13 37 39 31 25 13 10 5 9 13 18 3 0 5 9 21 27 39 25 33 31 36 57 56 56 57 76 86
44 38 41 41 34 33 31 31 29 33 33 27 25 23 24 21 23 28 34 29 23 14 7 6 8 10 17 19 21 30 17 15 12 9 10 9 4 6 6 10 17 30 41 28 27 40 45 53 60 64 60 65 63 82
44 40 43 35 31 28 27 26 26 28 23 24 27 28 24 22 18 26 25 21 28 18 7 7 4 4 6 32 15 17 19 7 13 6 6 3 4 6 2 8 22 25 24 40 50 52 44 51 60 66 54 62 56 85
40 39 35 31 31 29 29 28 27 26 28 38 36 14 9 10 16 17 12 13 21 12 12 8 11 7 10 6 14 14 15 7 6 10 8 6 5 7 7 13 18 26 31 37 41 43 63 64 59 61 55 53 57 82
40 37 31 24 30 26 27 27 25 30 46 42 17 11 15 15 20 9 8 9 11 8 13 16 32 15 16 8 4 5 4 9 5 6 6 5 3 5 10 15 20 29 33 32 33 43 50 57 62 65 63 63 66 80
36 35 33 27 26 24 25 28 31 45 40 32 22 21 16 11 10 7 8 9 10 8 14 11 24 34 14 13 2 6 5 5 3 19 4 3 4 14 15 17 22 31 31 31 36 42 48 48 60 66 68 65 69 75
35 35 35 30 30 26 26 30 38 54 46 34 10 11 10 10 9 11 13 8 7 11 17 20 6 21 11 10 1 1 6 7 27 7 4 5 16 12 13 17 24 26 32 34 40 44 47 51 54 64 67 71 74 74
36 35 29 30 30 24 26 45 60 63 32 9 14 10 9 10 10 8 10 6 9 13 20 28 9 11 5 6 5 5 7 3 5 3 6 5 9 9 13 23 32 36 37 45 48 52 50 52 56 64 64 74 80 68
39 31 27 28 28 27 37 60 75 62 10 11 10 9 14 18 7 11 23 19 21 26 27 6 5 5 4 1 3 5 6 1 7 4 4 6 6 9 16 22 27 30 37 46 54 59 54 51 55 62 63 70 74 85
34 34 42 30 28 33 72 82 70 38 11 9 10 8 13 6 14 20 19 23 23 30 20 21 2 4 4 1 2 3 7 3 3 5 9 3 5 10 15 18 24 26 33 40 52 54 51 60 54 55 56 65 73 80
29 36 33 28 31 65 85 61 28 12 10 9 11 25 25 13 16 18 19 25 31 35 5 2 10 6 6 3 2 2 1 3 9 13 4 2 5 9 13 20 19 23 31 37 48 48 50 54 60 56 62 68 67 73
34 32 28 36 71 89 60 20 11 14 11 19 10 9 21 19 20 18 25 23 31 28 12 8 6 6 7 7 5 6 10 13 14 12 7 4 3 5 11 20 21 15 28 34 38 44 46 57 65 59 58 65 65 73
35 32 35 52 82 42 12 15 12 9 20 9 25 12 14 22 30 29 23 25 20 3 11 9 5 2 5 5 13 20 19 21 20 17 12 6 2 3 14 20 21 18 32 37 36 44 50 52 61 60 52 60 63 63
25 35 57 85 72 13 10 7 14 7 6 10 14 22 26 21 26 26 15 25 15 4 3 1 4 15 15 18 18 18 19 17 15 17 20 11 13 11 15 19 23 21 33 39 49 54 61 58 62 60 49 57 61 58
83 86 74 65 29 12 8 12 12 9 7 11 12 16 9 18 28 26 16 30 19 7 4 11 25 22 22 20 18 15 13 19 17 9 11 16 15 14 16 17 23 26 31 36 40 39 51 63 57 59 50 52 49 46
65 75 53 35 7 6 6 11 7 6 7 7 13 17 7 10 17 28 27 20 11 16 11 22 29 27 22 18 13 17 18 22 18 20 13 13 16 16 19 19 22 28 31 34 39 41 41 53 61 55 50 47 48 44
74 48 17 8 5 6 6 12 8 8 4 4 10 6 6 9 13 19 6 14 6 18 15 20 24 24 27 25 16 17 16 22 14 13 16 18 14 16 19 20 21 27 29 32 34 36 39 41 53 58 52 45 51 49
48 12 8 11 10 8 9 9 9 8 8 6 7 6 7 7 18 12 7 17 28 29 27 30 30 32 27 23 20 17 20 15 21 13 14 20 18 14 11 12 20 26 24 27 31 34 39 42 44 51 55 48 48 56
11 8 8 6 10 9 9 8 7 7 5 8 8 6 6 11 5 5 4 11 38 36 34 30 31 27 27 27 29 21 18 24 28 18 12 13 15 18 18 18 21 25 23 30 31 32 37 40 45 45 54 47 42 47
5 9 12 16 7 8 9 7 11 10 4 8 8 3 9 4 6 5 4 30 39 39 41 37 35 34 32 30 35 26 9 31 31 25 15 12 14 14 10 8 12 24 24 27 26 28 32 34 39 44 45 50 42 44
4 6 9 10 7 7 5 5 7 5 7 8 5 10 6 7 7 5 14 28 30 39 33 30 32 32 30 43 36 31 18 20 27 27 20 18 17 12 9 14 16 19 22 24 26 25 29 32 33 36 36 40 41 40
5 6 6 12 7 6 2 5 8 9 5 8 10 9 6 4 5 6 13 11 14 27 26 23 20 33 45 48 44 34 26 23 24 19 21 22 20 20 17 22 23 22 24 27 32 29 29 29 31 34 38 42 36 30
6 5 6 7 7 7 7 3 1 1 4 1 5 5 6 5 9 12 12 8 18 29 31 39 40 40 42 36 31 23 18 27 28 26 26 25 21 16 13 16 14 13 18 22 24 22 28 24 26 30 34 39 36 24
6 11 5 5 5 5 4 5 8 12 20 19 19 26 31 25 15 4 12 16 11 19 33 34 34 33 35 35 34 31 29 25 25 21 32 24 22 16 13 11 12 13 13 12 11 13 12 14 19 27 33 34 32 28
5 8 3 4 2 4 11 21 21 19 21 19 34 40 22 11 17 23 23 26 23 19 26 28 27 28 29 33 33 27 26 26 32 33 27 27 20 17 14 11 11 12 12 10 11 14 17 20 25 29 32 34 33 29
6 7 3 3 5 7 9 12 8 10 9 10 10 20 19 9 9 9 20 16 24 19 18 24 27 29 34 38 34 35 28 24 28 31 31 22 18 20 16 14 13 11 3 1 7 14 18 22 25 27 29 30 30 28
3 3 3 3 3 2 6 8 7 8 10 8 12 18 19 11 10 16 12 18 21 21 21 30 35 37 33 33 31 30 23 14 12 15 13 8 8 5 1 8 14 10 4 5 7 12 16 18 19 21 23 25 26 25
Wind_Direction_500mb
287 288 288 288 291 292 296 289 304 308 304 297 287 286 291 301 266 264 272 293 265 251 279 280 275 279 285 271 251 306 332 16 300 280 290 322 321 348 323 340 299 178 152 209 204 234 257 19 6 4 315 327 331 330
284 284 284 285 282 286 284 283 293 296 299 302 289 288 289 290 263 249 260 283 284 252 263 282 268 279 268 265 257 272 295 310 350 341 9 326 329 313 331 288 18 34 28 262 202 252 102 7 23 349 343 331 337 334
283 285 286 283 279 273 277 277 282 281 285 292 285 283 285 285 250 236 266 272 269 279 297 274 289 290 264 238 271 234 173 3 360 350 300 276 289 6 299 290 14 316 15 42 354 328 356 338 340 335 337 329 317 319
288 291 291 285 276 267 263 271 270 273 277 286 283 272 274 279 237 227 260 269 256 287 276 289 299 257 261 258 233 228 253 303 323 323 290 258 271 288 277 280 290 27 35 355 286 316 332 258 315 318 319 325 313 322
292 293 294 289 283 267 258 266 266 268 275 285 284 261 264 264 229 243 244 264 256 254 279 288 292 320 230 223 227 224 229 240 288 311 260 260 265 311 293 272 71 24 28 346 271 303 285 283 304 322 319 318 324 325
293 291 293 290 283 268 259 259 256 263 274 283 273 243 246 241 228 228 260 255 247 246 288 288 280 280 255 240 221 216 216 213 210 232 269 243 253 254 304 295 86 55 35 335 283 294 295 300 306 313 326 326 333 328
292 290 287 289 285 257 255 253 250 262 275 270 248 231 226 221 221 201 215 203 6 182 244 283 271 292 223 201 205 208 199 190 199 230 255 256 286 229 198 248 57 11 329 321 324 327 314 310 310 320 322 323 326 335
292 283 289 289 276 251 257 248 259 266 264 260 222 217 203 215 228 240 244 258 280 191 239 269 274 285 216 201 206 199 168 179 200 229 250 247 144 143 255 257 324 331 330 323 318 316 301 309 315 320 320 320 335 334
286 281 289 277 260 256 250 259 259 265 256 216 189 185 190 213 220 242 258 248 243 203 241 241 254 286 280 218 208 185 181 186 200 221 242 220 145 223 65 350 329 324 316 307 315 315 329 319 320 325 330 331 333 337
279 283 281 272 251 257 258 258 255 249 216 187 181 165 192 211 190 164 150 177 192 220 235 245 228 252 311 289 206 200 177 198 201 214 210 198 222 164 79 358 324 322 313 313 322 321 324 325 330 333 330 338 334 339
276 275 269 259 253 249 248 250 229 206 185 177 163 155 170 149 155 193 185 188 186 237 225 235 220 226 255 244 243 254 224 162 259 157 216 192 176 96 48 354 326 320 320 326 321 316 323 332 333 332 336 342 345 342
273 271 255 262 257 250 245 235 230 206 196 186 159 137 144 177 201 224 190 189 200 240 201 225 206 194 233 246 215 197 225 261 261 158 233 172 110 72 5 340 331 324 334 339 337 334 332 337 339 341 340 344 348 343
268 261 245 247 257 234 227 238 223 210 182 141 137 148 167 172 209 221 200 187 214 216 208 204 198 165 227 252 58 274 245 240 126 186 155 87 73 28 2 346 348 349 358 348 342 341 342 341 346 347 347 348 343 340
262 248 241 249 250 229 226 214 209 189 160 143 158 178 216 187 232 202 228 205 233 292 270 179 216 195 186 163 179 246 250 203 242 213 75 81 75 9 355 356 8 6 355 356 352 348 346 346 349 352 349 352 349 346
255 241 240 237 235 225 224 208 196 190 143 167 193 216 213 238 208 234 239 243 260 224 259 152 221 201 221 84 210 302 259 277 43 74 92 144 44 341 346 350 357 353 349 349 353 354 355 353 352 354 355 355 350 348
244 232 238 240 231 214 194 182 183 178 164 181 220 249 256 286 240 239 245 233 255 260 242 173 91 212 154 129 11 278 316 39 69 91 135 82 40 334 339 345 345 346 347 346 348 355 355 355 356 354 2 3 357 358
214 221 231 224 210 193 183 171 159 163 196 214 234 232 254 285 255 241 251 236 221 251 228 157 192 161 98 76 272 99 163 154 126 121 164 264 316 323 337 333 346 350 344 347 347 359 5 8 8 11 10 8 3 359
207 217 216 200 183 169 161 152 143 183 223 225 240 234 207 238 269 262 251 234 247 245 182 165 230 171 169 191 188 181 208 206 158 157 164 212 261 351 340 338 349 359 349 353 358 10 16 15 12 10 11 11 4 360
211 216 212 197 181 148 129 161 167 208 226 240 222 235 238 247 256 272 290 233 247 250 132 184 240 177 134 98 136 165 202 170 162 167 191 153 121 38 19 17 12 11 4 8 358 13 17 16 13 14 14 18 9 2
205 199 194 183 172 119 122 143 172 231 247 218 223 228 232 250 242 261 260 223 239 193 224 261 57 47 128 151 160 172 117 136 159 176 185 136 101 72 47 31 31 33 8 10 16 16 13 14 16 18 22 24 18 11
168 162 161 163 128 110 136 160 184 220 229 221 216 207 233 233 224 242 226 211 217 213 195 148 131 124 128 137 115 129 102 109 123 96 61 94 79 72 54 38 35 35 31 23 18 13 7 13 11 18 26 29 28 11
152 163 147 155 88 110 146 185 199 210 226 271 170 191 226 206 223 218 223 229 200 219 137 143 134 137 142 130 115 141 148 143 128 126 116 102 77 76 66 48 42 37 34 26 20 19 11 8 11 21 28 34 36 18
156 151 123 94 114 165 209 184 200 213 230 215 178 204 228 195 213 199 147 221 151 131 145 144 144 149 153 146 135 131 139 135 138 134 122 111 95 91 78 55 50 40 33 26 24 23 23 14 10 18 26 36 40 41
148 109 125 168 183 203 185 184 207 210 207 215 188 221 212 202 156 161 213 181 160 156 156 153 148 139 137 145 155 166 155 136 126 125 89 119 108 101 91 63 60 46 37 30 23 28 24 23 24 14 22 34 43 48
121 175 175 192 198 202 194 180 194 220 228 183 207 201 167 184 162 218 217 135 147 154 163 166 168 165 171 185 178 169 163 154 138 119 102 93 111 107 98 70 54 53 40 35 23 33 27 26 30 23 19 30 40 48
131 180 187 187 189 207 197 181 193 207 218 193 208 178 172 149 152 223 215 157 161 166 167 173 183 181 186 178 153 162 137 140 136 122 108 107 97 100 104 87 64 52 36 45 26 40 30 32 31 30 23 29 39 47
168 198 196 216 200 191 218 200 193 199 203 205 190 172 156 169 189 49 104 157 162 170 173 175 191 197 178 148 147 145 141 128 149 138 133 115 104 109 127 83 78 83 41 48 32 49 37 33 34 31 24 31 36 38
265 207 202 186 201 212 231 217 193 202 212 231 161 183 165 40 81 80 131 134 144 170 168 179 198 158 152 144 143 148 155 153 140 138 119 104 100 94 70 60 62 54 44 34 35 47 46 37 32 30 29 33 42 47
237 221 178 194 197 213 218 259 322 243 281 343 136 76 88 75 120 109 107 126 145 159 145 124 127 135 127 131 137 142 136 140 152 157 152 136 114 89 91 93 68 83 59 31 23 44 39 27 23 22 30 33 35 43
224 189 198 213 196 202 157 113 86 76 77 104 102 102 101 91 64 164 144 136 143 156 137 143 131 133 140 142 140 125 124 143 166 185 150 134 124 119 100 90 84 59 70 55 5 22 32 17 20 15 18 26 32 39
168 181 223 220 205 130 126 123 101 91 71 88 134 133 128 101 70 78 107 125 125 145 143 140 143 149 150 152 150 153 123 114 118 111 130 139 143 132 104 94 80 74 59 36 347 357 10 12 13 11 8 9 14 21
200 198 236 224 132 153 156 150 107 86 83 69 45 129 124 95 58 54 48 101 121 131 152 158 152 142 169 174 171 169 178 171 167 155 156 163 157 140 153 139 100 79 96 137 337 342 359 6 3 1 360 1 3 7
158 163 160 132 149 246 178 125 97 92 80 78 50 41 49 64 60 6 37 52 74 80 119 152 163 168 165 163 165 158 155 147 160 187 195 194 184 219 229 160 134 109 257 290 327 344 358 359 357 355 354 354 356 0
Wind_Speed_850mb
51 51 49 46 46 43 39 33 31 31 29 27 30 36 37 33 21 22 34 30 20 14 48 56 41 14 17 14 6 30 20 12 7 4 4 6 5 8 9 13 7 13 10 7 5 9 5 25 7 10 13 32 40 47
54 54 54 51 48 46 43 37 35 34 29 26 28 29 33 32 22 21 36 32 22 33 31 32 45 69 68 37 41 15 19 26 10 5 7 7 6 6 9 5 13 7 3 5 4 8 12 35 7 28 36 39 47 62
52 55 57 56 53 49 44 37 39 38 31 26 28 26 27 27 23 27 25 28 23 20 47 19 9 20 15 26 22 12 1 11 8 11 7 5 7 6 3 6 9 10 16 4 11 11 27 50 36 51 51 50 59 72
54 58 57 54 52 49 47 42 40 37 31 33 35 27 24 23 23 29 26 27 34 14 10 17 10 15 16 25 23 33 35 16 13 15 6 4 4 8 5 9 8 6 12 11 9 12 57 9 49 48 55 64 61 62
44 47 46 44 43 43 43 39 39 31 34 34 35 26 23 20 20 25 32 32 39 18 9 25 63 25 40 33 29 24 20 13 5 7 4 5 9 8 9 6 3 4 3 2 8 26 20 42 61 66 62 67 64 76
45 45 45 45 42 41 37 38 37 30 29 34 31 23 20 20 19 20 10 25 39 38 9 7 17 24 21 32 42 33 29 18 7 5 10 11 32 2 4 6 9 16 14 15 16 38 50 59 62 50 64 57 72 83
47 43 41 45 42 34 34 38 33 27 36 35 26 22 20 23 24 22 9 7 2 22 6 10 9 11 13 37 39 31 25 13 10 5 9 13 18 3 0 5 9 21 27 39 25 33 31 36 57 56 56 57 76 86
44 38 41 41 34 33 31 31 29 33 33 27 25 23 24 21 23 28 34 29 23 14 7 6 8 10 17 19 21 30 17 15 12 9 10 9 4 6 6 10 17 30 41 28 27 40 45 53 60 64 60 65 63 82
44 40 43 35 31 28 27 26 26 28 23 24 27 28 24 22 18 26 25 21 28 18 7 7 4 4 6 32 15 17 19 7 13 6 6 3 4 6 2 8 22 25 24 40 50 52 44 51 60 66 54 62 56 85
40 39 35 31 31 29 29 28 27 26 28 38 36 14 9 10 16 17 12 13 21 12 12 8 11 7 10 6 14 14 15 7 6 10 8 6 5 7 7 13 18 26 31 37 41 43 63 64 59 61 55 53 57 82
40 37 31 24 30 26 27 27 25 30 46 42 17 11 15 15 20 9 8 9 11 8 13 16 32 15 16 8 4 5 4 9 5 6 6 5 3 5 10 15 20 29 33 32 33 43 50 57 62 65 63 63 66 80
36 35 33 27 26 24 25 28 31 45 40 32 22 21 16 11 10 7 8 9 10 8 14 11 24 34 14 13 2 6 5 5 3 19 4 3 4 14 15 17 22 31 31 31 36 42 48 48 60 66 68 65 69 75
35 35 35 30 30 26 26 30 38 54 46 34 10 11 10 10 9 11 13 8 7 11 17 20 6 21 11 10 1 1 6 7 27 7 4 5 16 12 13 17 24 26 32 34 40 44 47 51 54 64 67 71 74 74
36 35 29 30 30 24 26 45 60 63 32 9 14 10 9 10 10 8 10 6 9 13 20 28 9 11 5 6 5 5 7 3 5 3 6 5 9 9 13 23 32 36 37 45 48 52 50 52 56 64 64 74 80 68
39 31 27 28 28 27 37 60 75 62 10 11 10 9 14 18 7 11 23 19 21 26 27 6 5 5 4 1 3 5 6 1 7 4 4 6 6 9 16 22 27 30 37 46 54 59 54 51 55 62 63 70 74 85
34 34 42 30 28 33 72 82 70 38 11 9 10 8 13 6 14 20 19 23 23 30 20 21 2 4 4 1 2 3 7 3 3 5 9 3 5 10 15 18 24 26 33 40 52 54 51 60 54 55 56 65 73 80
29 36 33 28 31 65 85 61 28 12 10 9 11 25 25 13 16 18 19 25 31 35 5 2 10 6 6 3 2 2 1 3 9 13 4 2 5 9 13 20 19 23 31 37 48 48 50 54 60 56 62 68 67 73
34 32 28 36 71 89 60 20 11 14 11 19 10 9 21 19 20 18 25 23 31 28 12 8 6 6 7 7 5 6 10 13 14 12 7 4 3 5 11 20 21 15 28 34 38 44 46 57 65 59 58 65 65 73
35 32 35 52 82 42 12 15 12 9 20 9 25 12 14 22 30 29 23 25 20 3 11 9 5 2 5 5 13 20 19 21 20 17 12 6 2 3 14 20 21 18 32 37 36 44 50 52 61 60 52 60 63 63
25 35 57 85 72 13 10 7 14 7 6 10 14 22 26 21 26 26 15 25 15 4 3 1 4 15 15 18 18 18 19 17 15 17 20 11 13 11 15 19 23 21 33 39 49 54 61 58 62 60 49 57 61 58
83 86 74 65 29 12 8 12 12 9 7 11 12 16 9 18 28 26 16 30 19 7 4 11 25 22 22 20 18 15 13 19 17 9 11 16 15 14 16 17 23 26 31 36 40 39 51 63 57 59 50 52 49 46
65 75 53 35 7 6 6 11 7 6 7 7 13 17 7 10 17 28 27 20 11 16 11 22 29 27 22 18 13 17 18 22 18 20 13 13 16 16 19 19 22 28 31 34 39 41 41 53 61 55 50 47 48 44
74 48 17 8 5 6 6 12 8 8 4 4 10 6 6 9 13 19 6 14 6 18 15 20 24 24 27 25 16 17 16 22 14 13 16 18 14 16 19 20 21 27 29 32 34 36 39 41 53 58 52 45 51 49
48 12 8 11 10 8 9 9 9 8 8 6 7 6 7 7 18 12 7 17 28 29 27 30 30 32 27 23 20 17 20 15 21 13 14 20 18 14 11 12 20 26 24 27 31 34 39 42 44 51 55 48 48 56
11 8 8 6 10 9 9 8 7 7 5 8 8 6 6 11 5 5 4 11 38 36 34 30 31 27 27 27 29 21 18 24 28 18 12 13 15 18 18 18 21 25 23 30 31 32 37 40 45 45 54 47 42 47
5 9 12 16 7 8 9 7 11 10 4 8 8 3 9 4 6 5 4 30 39 39 41 37 35 34 32 30 35 26 9 31 31 25 15 12 14 14 10 8 12 24 24 27 26 28 32 34 39 44 45 50 42 44
4 6 9 10 7 7 5 5 7 5 7 8 5 10 6 7 7 5 14 28 30 39 33 30 32 32 30 43 36 31 18 20 27 27 20 18 17 12 9 14 16 19 22 24 26 25 29 32 33 36 36 40 41 40
5 6 6 12 7 6 2 5 8 9 5 8 10 9 6 4 5 6 13 11 14 27 26 23 20 33 45 48 44 34 26 23 24 19 21 22 20 20 17 22 23 22 24 27 32 29 29 29 31 34 38 42 36 30
6 5 6 7 7 7 7 3 1 1 4 1 5 5 6 5 9 12 12 8 18 29 31 39 40 40 42 36 31 23 18 27 28 26 26 25 21 16 13 16 14 13 18 22 24 22 28 24 26 30 34 39 36 24
6 11 5 5 5 5 4 5 8 12 20 19 19 26 31 25 15 4 12 16 11 19 33 34 34 33 35 35 34 31 29 25 25 21 32 24 22 16 13 11 12 13 13 12 11 13 12 14 19 27 33 34 32 28
5 8 3 4 2 4 11 21 21 19 21 19 34 40 22 11 17 23 23 26 23 19 26 28 27 28 29 33 33 27 26 26 32 33 27 27 20 17 14 11 11 12 12 10 11 14 17 20 25 29 32 34 33 29
6 7 3 3 5 7 9 12 8 10 9 10 10 20 19 9 9 9 20 16 24 19 18 24 27 29 34 38 34 35 28 24 28 31 31 22 18 20 16 14 13 11 3 1 7 14 18 22 25 27 29 30 30 28
3 3 3 3 3 2 6 8 7 8 10 8 12 18 19 11 10 16 12 18 21 21 21 30 35 37 33 33 31 30 23 14 12 15 13 8 8 5 1 8 14 10 4 5 7 12 16 18 19 21 23 25 26 25
Wind_Direction_850mb
287 288 288 288 291 292 296 289 304 308 304 297 287 286 291 301 266 264 272 293 265 251 279 280 275 279 285 271 251 306 332 16 300 280 290 322 321 348 323 340 299 178 152 209 204 234 257 19 6 4 315 327 331 330
284 284 284 285 282 286 284 283 293 296 299 302 289 288 289 290 263 249 260 283 284 252 263 282 268 279 268 265 257 272 295 310 350 341 9 326 329 313 331 288 18 34 28 262 202 252 102 7 23 349 343 331 337 334
283 285 286 283 279 273 277 277 282 281 285 292 285 283 285 285 250 236 266 272 269 279 297 274 289 290 264 238 271 234 173 3 360 350 300 276 289 6 299 290 14 316 15 42 354 328 356 338 340 335 337 329 317 319
288 291 291 285 276 267 263 271 270 273 277 286 283 272 274 279 237 227 260 269 256 287 276 289 299 257 261 258 233 228 253 303 323 323 290 258 271 288 277 280 290 27 35 355 286 316 332 258 315 318 319 325 313 322
292 293 294 289 283 267 258 266 266 268 275 285 284 261 264 264 229 243 244 264 256 254 279 288 292 320 230 223 227 224 229 240 288 311 260 260 265 311 293 272 71 24 28 346 271 303 285 283 304 322 319 318 324 325
293 291 293 290 283 268 259 259 256 263 274 283 273 243 246 241 228 228 260 255 247 246 288 288 280 280 255 240 221 216 216 213 210 232 269 243 253 254 304 295 86 55 35 335 283 294 295 300 306 313 326 326 333 328
292 290 287 289 285 257 255 253 250 262 275 270 248 231 226 221 221 201 215 203 6 182 244 283 271 292 223 201 205 208 199 190 199 230 255 256 286 229 198 248 57 11 329 321 324 327 314 310 310 320 322 323 326 335
292 283 289 289 276 251 257 248 259 266 264 260 222 217 203 215 228 240 244 258 280 191 239 269 274 285 216 201 206 199 168 179 200 229 250 247 144 143 255 257 324 331 330 323 318 316 301 309 315 320 320 320 335 334
286 281 289 277 260 256 250 259 259 265 256 216 189 185 190 213 220 242 258 248 243 203 241 241 254 286 280 218 208 185 181 186 200 221 242 220 145 223 65 350 329 324 316 307 315 315 329 319 320 325 330 331 333 337
279 283 281 272 251 257 258 258 255 249 216 187 181 165 192 211 190 164 150 177 192 220 235 245 228 252 311 289 206 200 177 198 201 214 210 198 222 164 79 358 324 322 313 313 322 321 324 325 330 333 330 338 334 339
276 275 269 259 253 249 248 250 229 206 185 177 163 155 170 149 155 193 185 188 186 237 225 235 220 226 255 244 243 254 224 162 259 157 216 192 176 96 48 354 326 320 320 326 321 316 323 332 333 332 336 342 345 342
273 271 255 262 257 250 245 235 230 206 196 186 159 137 144 177 201 224 190 189 200 240 201 225 206 194 233 246 215 197 225 261 261 158 233 172 110 72 5 340 331 324 334 339 337 334 332 337 339 341 340 344 348 343
268 261 245 247 257 234 227 238 223 210 182 141 137 148 167 172 209 221 200 187 214 216 208 204 198 165 227 252 58 274 245 240 126 186 155 87 73 28 2 346 348 349 358 348 342 341 342 341 346 347 347 348 343 340
262 248 241 249 250 229 226 214 209 189 160 143 158 178 216 187 232 202 228 205 233 292 270 179 216 195 186 163 179 246 250 203 242 213 75 81 75 9 355 356 8 6 355 356 352 348 346 346 349 352 349 352 349 346
255 241 240 237 235 225 224 208 196 190 143 167 193 216 213 238 208 234 239 243 260 224 259 152 221 201 221 84 210 302 259 277 43 74 92 144 44 341 346 350 357 353 349 349 353 354 355 353 352 354 355 355 350 348
244 232 238 240 231 214 194 182 183 178 164 181 220 249 256 286 240 239 245 233 255 260 242 173 91 212 154 129 11 278 316 39 69 91 135 82 40 334 339 345 345 346 347 346 348 355 355 355 356 354 2 3 357 358
214 221 231 224 210 193 183 171 159 163 196 214 234 232 254 285 255 241 251 236 221 251 228 157 192 161 98 76 272 99 163 154 126 121 164 264 316 323 337 333 346 350 344 347 347 359 5 8 8 11 10 8 3 359
207 217 216 200 183 169 161 152 143 183 223 225 240 234 207 238 269 262 251 234 247 245 182 165 230 171 169 191 188 181 208 206 158 157 164 212 261 351 340 338 349 359 349 353 358 10 16 15 12 10 11 11 4 360
211 216 212 197 181 148 129 161 167 208 226 240 222 235 238 247 256 272 290 233 247 250 132 184 240 177 134 98 136 165 202 170 162 167 191 153 121 38 19 17 12 11 4 8 358 13 17 16 13 14 14 18 9 2
205 199 194 183 172 119 122 143 172 231 247 218 223 228 232 250 242 261 260 223 239 193 224 261 57 47 128 151 160 172 117 136 159 176 185 136 101 72 47 31 31 33 8 10 16 16 13 14 16 18 22 24 18 11
168 162 161 163 128 110 136 160 184 220 229 221 216 207 233 233 224 242 226 211 217 213 195 148 131 124 128 137 115 129 102 109 123 96 61 94 79 72 54 38 35 35 31 23 18 13 7 13 11 18 26 29 28 11
152 163 147 155 88 110 146 185 199 210 226 271 170 191 226 206 223 218 223 229 200 219 137 143 134 137 142 130 115 141 148 143 128 126 116 102 77 76 66 48 42 37 34 26 20 19 11 8 11 21 28 34 36 18
156 151 123 94 114 165 209 184 200 213 230 215 178 204 228 195 213 199 147 221 151 131 145 144 144 149 153 146 135 131 139 135 138 134 122 111 95 91 78 55 50 40 33 26 24 23 23 14 10 18 26 36 40 41
148 109 125 168 183 203 185 184 207 210 207 215 188 221 212 202 156 161 213 181 160 156 156 153 148 139 137 145 155 166 155 136 126 125 89 119 108 101 91 63 60 46 37 30 23 28 24 23 24 14 22 34 43 48
121 175 175 192 198 202 194 180 194 220 228 183 207 201 167 184 162 218 217 135 147 154 163 166 168 165 171 185 178 169 163 154 138 119 102 93 111 107 98 70 54 53 40 35 23 33 27 26 30 23 19 30 40 48
131 180 187 187 189 207 197 181 193 207 218 193 208 178 172 149 152 223 215 157 161 166 167 173 183 181 186 178 153 162 137 140 136 122 108 107 97 100 104 87 64 52 36 45 26 40 30 32 31 30 23 29 39 47
168 198 196 216 200 191 218 200 193 199 203 205 190 172 156 169 189 49 104 157 162 170 173 175 191 197 178 148 147 145 141 128 149 138 133 115 104 109 127 83 78 83 41 48 32 49 37 33 34 31 24 31 36 38
265 207 202 186 201 212 231 217 193 202 212 231 161 183 165 40 81 80 131 134 144 170 168 179 198 158 152 144 143 148 155 153 140 138 119 104 100 94 70 60 62 54 44 34 35 47 46 37 32 30 29 33 42 47
237 221 178 194 197 213 218 259 322 243 281 343 136 76 88 75 120 109 107 126 145 159 145 124 127 135 127 131 137 142 136 140 152 157 152 136 114 89 91 93 68 83 59 31 23 44 39 27 23 22 30 33 35 43
224 189 198 213 196 202 157 113 86 76 77 104 102 102 101 91 64 164 144 136 143 156 137 143 131 133 140 142 140 125 124 143 166 185 150 134 124 119 100 90 84 59 70 55 5 22 32 17 20 15 18 26 32 39
168 181 223 220 205 130 126 123 101 91 71 88 134 133 128 101 70 78 107 125 125 145 143 140 143 149 150 152 150 153 123 114 118 111 130 139 143 132 104 94 80 74 59 36 347 357 10 12 13 11 8 9 14 21
200 198 236 224 132 153 156 150 107 86 83 69 45 129 124 95 58 54 48 101 121 131 152 158 152 142 169 174 171 169 178 171 167 155 156 163 157 140 153 139 100 79 96 137 337 342 359 6 3 1 360 1 3 7
158 163 160 132 149 246 178 125 97 92 80 78 50 41 49 64 60 6 37 52 74 80 119 152 163 168 165 163 165 158 155 147 160 187 195 194 184 219 229 160 134 109 257 290 327 344 358 359 357 355 354 354 356 0